Volver al catálogo

SL-6 R/B(2)

ActivoHEO
NORAD 24764·ROCKET BODY·🇷🇺 Russia

Lanzado Apr 9, 1997 desde Plesetsk Cosmodrome

Loading…

Próximos Pases (próximas 24 horas)

TLE

ActualizadoSource: Space-Track

Época: Sep 14, 2026, 02:01 UTC

1 24764U 97015D   26257.08469158  .00000763  00000-0  00000-0 0  9994
2 24764  66.8644  69.5984 5975859 131.4352 298.0985  2.03155598218333

Sigue SL-6 R/B(2) en tiempo real con AllMySat

Download on the App Store